Weather Roundup
Issued by NWS Corpus Christi, TX

Home | Current Version | Previous Version | Text Only | Print | Product List | Glossary On
Versions: 1 2 3 4 5 6 7 8 9 10 11 12 13 14 15 16 17 18 19 20 21 22 23 24 25 26 27 28 29 30 31 32 33 34 35 36 37 38 39 40 41 42 43 44 45 46 47 48 49 50
000
ASUS44 KCRP 211010
HRRCRP

SOUTH TEXAS REGIONAL WEATHER ROUNDUP
NATIONAL WEATHER SERVICE CORPUS CHRISTI TX
500 AM CDT SUN SEP 21 2014


TXZ229>244-211100-
...CORPUS CHRISTI AREA OBSERVATIONS...

CITY           SKY/WX    TMP DP  RH WIND       PRES   REMARKS
CORPUS CHRISTI LGT RAIN  78  76  93 N9        29.91S
NAS CORPUS CHR LGT RAIN  79  79 100 NE9       29.89F
ROCKPORT       PTCLDY    78  76  93 N10       29.91S
KINGSVILLE NAS PTCLDY    77  77 100 N6        29.91F
ALICE          PTCLDY    76  75  97 N6        29.92S
FALFURRIAS     CLOUDY   N/A N/A N/A CALM      29.92R
$$

...VICTORIA AREA OBSERVATIONS...

CITY           SKY/WX    TMP DP  RH WIND       PRES   REMARKS
VICTORIA       PTCLDY    77  75  93 NE8       29.95S
BEEVILLE       FAIR      75  75 100 MISG      29.94S
PLEASANTON     MOCLDY    73  72  94 N3        29.98S
SAN ANTONIO    CLOUDY    77  72  84 CALM      30.01S
$$

...LAREDO AREA OBSERVATIONS...

CITY           SKY/WX    TMP DP  RH WIND       PRES   REMARKS
LAREDO         CLEAR     76  76 100 CALM      29.98R
COTULLA        PTCLDY    75  73  93 NE5       29.97S
DEL RIO        CLOUDY    77  72  84 E7        29.99R
MCALLEN        PTCLDY    77  76  96 N6        29.91R
HEBBRONVILLE     N/A     74  73  95 N3        29.96R FOG
$$

...OTHER TEXAS OBSERVATIONS...

CITY           SKY/WX    TMP DP  RH WIND       PRES   REMARKS
BROWNSVILLE    CLEAR     77  75  93 N5        29.89R
HOUSTON        PTCLDY    74  72  93 NE3       29.98R
COL. STATION   CLEAR     73  69  87 CALM      30.00R
AUSTIN         PTCLDY    71  70  96 CALM      30.00S
WACO           CLEAR     68  67  96 CALM      30.03R
FORT WORTH     CLEAR     72  63  73 CALM      30.03R
WICHITA FALLS  CLOUDY    72  67  84 S3        30.04R
LUBBOCK        FOG       67  66  97 NE3       30.14R VSB 1/2
EL PASO        PTCLDY    73  65  75 NE5       30.09F
$$

...MARINE OBSERVATIONS...

STATION/POSITION TIME  SKY/WX   TEMP    WIND        PRES    VSBY  WAVE   SWELL
                                AIR SEA DIR/SP/G                  HT/PER HT/PER
                 (UTC)          (F)     (DEG/KT/KT) (MB)    (MI)  (FT/S) (FT/S)
PORT ARANSAS     1000            83 84   50/ 14/ 17 1012.8F
BUOY 90 E PORT A 1000            84 85   90/ 17/ 19 1012.4F         5/ 7
BUOY 45 SE BAFFI 1000            83 84   CALM  /  2 1011.5R         3/ 6   3/ 6
BUOY 200 E PT IS 1000            83 85  140/  4/  4 1011.5F         3/ 8   3/ 8
BUOY 15 E GALVES 1000            83 83   80/ 16/ 19 1013.6R         4/ 6
$$


USA.gov is the U.S. government's official web portal to all federal, state and local government web resources and services.